When you browse on this site, cookies collect data to enhance your experience and personalize the content and advertising you see.
Visit our Privacy Policy to learn more. By continuing to use the site, you agree to this use of cookies and data.
  • In Belgien
  • Länderverzeichnis
  • Für 7 Tage
  • Wassertemperatur
  • Satellitenkarten
  • Wetterkarte
  • Widgets
  • user-avatar
    Anmelden

    Stündliche Wetter Rakoszyce

    Heute, 22 Februar, Freitag

    Zeit Temperatur Niederschläge Wind Luftdruck Luftfeuchtigkeit
    00:00 +5°C° 1.2 mm 6 m/S 752 mmHg 91%
    01:00 +5°C° 0 mm 4 m/S 752 mmHg 91%
    02:00 +6°C° 0.5 mm 5 m/S 753 mmHg 92%
    03:00 +6°C° 0.5 mm 5 m/S 753 mmHg 92%
    04:00 +5°C° 0.5 mm 6 m/S 753 mmHg 93%
    05:00 +3°C° 0.1 mm 6 m/S 754 mmHg 89%
    06:00 +2°C° 0.1 mm 6 m/S 755 mmHg 86%
    07:00 0°C° 0 mm 5 m/S 757 mmHg 81%
    08:00 0°C° 0 mm 5 m/S 758 mmHg 76%
    09:00 -1°C° 0 mm 5 m/S 759 mmHg 72%
    10:00 -2°C° 0 mm 6 m/S 760 mmHg 67%
    11:00 -2°C° 0 mm 6 m/S 761 mmHg 60%
    12:00 -2°C° 0 mm 6 m/S 762 mmHg 53%
    13:00 -1°C° 0 mm 6 m/S 763 mmHg 46%
    14:00 0°C° 0 mm 5 m/S 763 mmHg 45%
    15:00 -1°C° 0 mm 5 m/S 764 mmHg 44%
    16:00 -1°C° 0 mm 5 m/S 765 mmHg 43%
    17:00 -2°C° 0 mm 4 m/S 765 mmHg 47%
    18:00 -3°C° 0 mm 4 m/S 766 mmHg 51%
    19:00 -4°C° 0 mm 3 m/S 767 mmHg 55%
    20:00 -4°C° 0 mm 3 m/S 767 mmHg 54%
    21:00 -4°C° 0 mm 3 m/S 768 mmHg 53%
    22:00 -3°C° 0 mm 2 m/S 769 mmHg 52%
    23:00 -3°C° 0 mm 2 m/S 769 mmHg 50%

    Morgen, 23 Februar, Samstag

    Zeit Temperatur Niederschläge Wind Luftdruck Luftfeuchtigkeit
    00:00 -3°C° 0 mm 2 m/S 769 mmHg 48%
    01:00 -3°C° 0 mm 2 m/S 769 mmHg 46%
    02:00 -3°C° 0 mm 2 m/S 769 mmHg 45%
    03:00 -2°C° 0 mm 1 m/S 769 mmHg 44%
    04:00 -2°C° 0 mm 1 m/S 769 mmHg 44%
    05:00 -2°C° 0 mm 1 m/S 769 mmHg 43%
    06:00 -2°C° 0 mm 1 m/S 769 mmHg 43%
    07:00 -2°C° 0 mm 1 m/S 769 mmHg 43%
    08:00 -1°C° 0 mm 1 m/S 770 mmHg 39%
    09:00 -3°C° 0 mm 2 m/S 770 mmHg 35%
    10:00 -2°C° 0 mm 2 m/S 770 mmHg 31%
    11:00 -1°C° 0 mm 2 m/S 770 mmHg 28%
    12:00 +1°C° 0 mm 2 m/S 769 mmHg 26%
    13:00 +2°C° 0 mm 2 m/S 769 mmHg 24%
    14:00 +2°C° 0 mm 2 m/S 769 mmHg 25%
    15:00 +2°C° 0 mm 2 m/S 768 mmHg 26%
    16:00 +3°C° 0 mm 1 m/S 768 mmHg 27%
    17:00 +1°C° 0 mm 2 m/S 768 mmHg 30%
    18:00 -1°C° 0 mm 2 m/S 768 mmHg 34%
    19:00 -2°C° 0 mm 2 m/S 768 mmHg 37%
    20:00 -2°C° 0 mm 2 m/S 768 mmHg 37%
    21:00 -2°C° 0 mm 2 m/S 767 mmHg 38%
    22:00 -3°C° 0 mm 2 m/S 767 mmHg 38%
    23:00 -3°C° 0 mm 2 m/S 767 mmHg 37%

    übermorgen, 24 Februar, Sonntag

    Zeit Temperatur Niederschläge Wind Luftdruck Luftfeuchtigkeit
    00:00 0°C° 0 mm 1 m/S 767 mmHg 36%
    01:00 0°C° 0 mm 1 m/S 767 mmHg 35%
    02:00 0°C° 0 mm 1 m/S 767 mmHg 34%
    03:00 +1°C° 0 mm 1 m/S 767 mmHg 32%
    04:00 0°C° 0 mm 0 m/S 766 mmHg 31%
    05:00 0°C° 0 mm 0 m/S 766 mmHg 31%
    06:00 +1°C° 0 mm 1 m/S 766 mmHg 31%
    07:00 +1°C° 0 mm 1 m/S 766 mmHg 31%
    08:00 +3°C° 0 mm 1 m/S 766 mmHg 29%
    09:00 +4°C° 0 mm 1 m/S 766 mmHg 28%
    10:00 +5°C° 0 mm 1 m/S 766 mmHg 26%
    11:00 +5°C° 0 mm 2 m/S 766 mmHg 27%
    12:00 +6°C° 0 mm 2 m/S 766 mmHg 27%
    13:00 +7°C° 0 mm 2 m/S 766 mmHg 27%
    14:00 +7°C° 0 mm 2 m/S 766 mmHg 32%
    15:00 +7°C° 0 mm 2 m/S 765 mmHg 38%
    16:00 +6°C° 0 mm 2 m/S 765 mmHg 43%
    17:00 +5°C° 0 mm 2 m/S 765 mmHg 45%
    18:00 +4°C° 0 mm 2 m/S 766 mmHg 48%
    19:00 +2°C° 0 mm 2 m/S 766 mmHg 50%
    20:00 +2°C° 0 mm 2 m/S 766 mmHg 51%
    21:00 +2°C° 0 mm 2 m/S 766 mmHg 53%
    22:00 +2°C° 0 mm 2 m/S 766 mmHg 54%
    23:00 +2°C° 0 mm 2 m/S 766 mmHg 55%

    25 Februar, Montag

    Zeit Temperatur Niederschläge Wind Luftdruck Luftfeuchtigkeit
    00:00 +1°C° 0 mm 2 m/S 766 mmHg 56%
    01:00 +1°C° 0 mm 2 m/S 766 mmHg 56%
    02:00 +1°C° 0 mm 2 m/S 766 mmHg 57%
    03:00 0°C° 0 mm 3 m/S 766 mmHg 58%
    04:00 0°C° 0 mm 3 m/S 766 mmHg 59%
    05:00 0°C° 0 mm 3 m/S 766 mmHg 61%
    06:00 0°C° 0 mm 3 m/S 766 mmHg 62%
    07:00 0°C° 0 mm 3 m/S 766 mmHg 63%
    08:00 +1°C° 0 mm 3 m/S 766 mmHg 61%
    09:00 +2°C° 0 mm 3 m/S 766 mmHg 58%
    10:00 +4°C° 0 mm 3 m/S 767 mmHg 56%
    11:00 +5°C° 0 mm 3 m/S 766 mmHg 55%
    12:00 +7°C° 0 mm 3 m/S 766 mmHg 54%
    13:00 +9°C° 0 mm 3 m/S 766 mmHg 53%
    14:00 +9°C° 0 mm 2 m/S 765 mmHg 55%
    15:00 +9°C° 0 mm 2 m/S 765 mmHg 56%
    16:00 +9°C° 0 mm 2 m/S 765 mmHg 58%
    17:00 +8°C° 0 mm 2 m/S 765 mmHg 62%
    18:00 +7°C° 0 mm 2 m/S 765 mmHg 65%
    19:00 +5°C° 0 mm 2 m/S 765 mmHg 69%
    20:00 +5°C° 0 mm 2 m/S 765 mmHg 69%
    21:00 +4°C° 0 mm 2 m/S 765 mmHg 69%
    22:00 +3°C° 0 mm 3 m/S 764 mmHg 70%
    23:00 +3°C° 0 mm 3 m/S 764 mmHg 70%

    26 Februar, Dienstag

    Zeit Temperatur Niederschläge Wind Luftdruck Luftfeuchtigkeit
    00:00 +3°C° 0 mm 3 m/S 764 mmHg 69%
    01:00 +3°C° 0 mm 3 m/S 763 mmHg 69%
    02:00 +3°C° 0 mm 3 m/S 763 mmHg 70%
    03:00 +3°C° 0 mm 3 m/S 762 mmHg 71%
    04:00 +3°C° 0 mm 4 m/S 762 mmHg 71%
    05:00 +3°C° 0 mm 4 m/S 762 mmHg 73%
    06:00 +3°C° 0 mm 4 m/S 761 mmHg 74%
    07:00 +3°C° 0 mm 4 m/S 761 mmHg 75%
    08:00 +3°C° 0 mm 5 m/S 761 mmHg 70%
    09:00 +5°C° 0 mm 6 m/S 761 mmHg 65%
    10:00 +6°C° 0 mm 7 m/S 761 mmHg 60%
    11:00 +8°C° 0 mm 7 m/S 760 mmHg 56%
    12:00 +9°C° 0 mm 7 m/S 760 mmHg 51%
    13:00 +10°C° 0 mm 7 m/S 760 mmHg 47%
    14:00 +10°C° 0 mm 6 m/S 759 mmHg 51%
    15:00 +9°C° 0 mm 5 m/S 759 mmHg 55%
    16:00 +9°C° 0 mm 5 m/S 759 mmHg 59%
    17:00 +8°C° 0 mm 4 m/S 759 mmHg 63%
    18:00 +8°C° 0 mm 3 m/S 760 mmHg 67%
    19:00 +8°C° 0 mm 3 m/S 760 mmHg 71%
    20:00 +7°C° 0 mm 3 m/S 760 mmHg 76%
    21:00 +5°C° 0 mm 3 m/S 760 mmHg 81%
    22:00 +4°C° 0 mm 3 m/S 760 mmHg 86%
    23:00 +5°C° 0 mm 2 m/S 760 mmHg 88%

    27 Februar, Mittwoch

    Zeit Temperatur Niederschläge Wind Luftdruck Luftfeuchtigkeit
    00:00 +4°C° 0 mm 2 m/S 760 mmHg 90%
    01:00 +4°C° 0 mm 2 m/S 760 mmHg 92%
    02:00 +3°C° 0 mm 2 m/S 760 mmHg 93%
    03:00 +3°C° 0 mm 2 m/S 760 mmHg 93%
    04:00 +3°C° 0 mm 2 m/S 759 mmHg 94%
    05:00 +2°C° 0 mm 2 m/S 759 mmHg 94%
    06:00 +2°C° 0 mm 2 m/S 759 mmHg 94%
    07:00 +3°C° 0 mm 1 m/S 759 mmHg 94%
    08:00 +4°C° 0 mm 1 m/S 759 mmHg 88%
    09:00 +6°C° 0 mm 1 m/S 759 mmHg 82%
    10:00 +8°C° 0 mm 1 m/S 759 mmHg 76%
    11:00 +9°C° 0 mm 1 m/S 758 mmHg 68%
    12:00 +10°C° 0 mm 1 m/S 758 mmHg 59%
    13:00 +12°C° 0 mm 1 m/S 757 mmHg 51%
    14:00 +12°C° 0 mm 1 m/S 757 mmHg 52%
    15:00 +12°C° 0 mm 1 m/S 756 mmHg 53%
    16:00 +13°C° 0 mm 1 m/S 756 mmHg 54%
    17:00 +12°C° 0 mm 1 m/S 755 mmHg 61%
    18:00 +10°C° 0 mm 1 m/S 755 mmHg 67%
    19:00 +9°C° 0 mm 1 m/S 755 mmHg 74%
    20:00 +8°C° 0 mm 2 m/S 754 mmHg 77%
    21:00 +7°C° 0 mm 2 m/S 754 mmHg 80%
    22:00 +7°C° 0 mm 2 m/S 753 mmHg 84%
    23:00 +7°C° 0 mm 2 m/S 753 mmHg 82%
    Mehr zeigen